[[{"header":{"parameterUnit":"m.s-1","parameterCategory":2,"la1":30.2991,"la2":30.254,"lo1":-89.0895,"lo2":-89.0444,"dy":0.0017,"dx":0.0017,"nx":28,"ny":28,"refTime":"2024-03-27T09:00:00:Z","depth":"0","parameterNumber":2,"parameterNumberName":"U-component_of_CURRENTS"},"data":[0,0,0,0,0,0,0,0,0,0,0,0,0,0,0,0,0,0,0,0,0,0,0,0,0,0,0,0,0,0,0,0,0,0,0,0,0,0,0,0,0,0,0,0,0,0,0,0,0,0,0,0,0,0,0,0,0,0,-0.199,-0.199,0,-0.201,-0.201,-0.201,-0.1997,-0.1997,-0.1996,-0.1996,-0.2,-0.2,-0.2001,0,0,0,0,0,0,0,0,0,0,0,0,0,-0.1968,-0.1968,-0.199,-0.199,-0.199,-0.201,-0.201,-0.201,-0.1997,-0.1997,-0.1996,-0.1996,-0.1999,-0.2,-0.2001,0,0,0,0,0,0,0,0,0,0,0,0,0,-0.198,-0.1968,-0.199,-0.1987,-0.1987,-0.201,-0.201,-0.201,-0.1997,-0.1997,-0.1996,-0.1995,-0.1999,-0.2,-0.2001,-0.2021,0,0,-0.2003,-0.2004,0,0,0,0,0,0,0,0,-0.198,-0.1981,-0.1987,-0.1987,-0.1987,-0.2001,-0.2004,-0.2013,-0.1998,-0.1992,-0.1996,-0.1995,-0.2,-0.2001,-0.2005,-0.2021,-0.2021,-0.2003,-0.2004,-0.2004,-0.2005,0,0,0,0,0,0,0,-0.1979,-0.198,-0.1996,-0.1988,-0.1988,-0.1995,-0.1995,-0.2006,-0.1999,-0.1993,-0.1992,-0.1997,-0.2,-0.2004,-0.2005,-0.2021,-0.2003,-0.2004,-0.2005,-0.2005,-0.2052,-0.2053,0,0,0,0,0,0,-0.1978,-0.1979,-0.1996,-0.1997,-0.1983,-0.1996,-0.1996,-0.1997,-0.1999,-0.1999,-0.1997,-0.1996,-0.2003,-0.2004,-0.2005,-0.2041,-0.2004,-0.2005,-0.2006,-0.2052,-0.2053,-0.2053,0,0,0,0,0,0,-0.1977,-0.1979,-0.1995,-0.199,-0.1992,-0.1997,-0.1997,-0.1998,-0.1997,-0.2003,-0.2002,-0.1996,-0.2002,-0.2004,-0.2012,-0.204,-0.2005,-0.2006,-0.2051,-0.2052,-0.2053,-0.2105,0,0,0,0,0,0,-0.1977,-0.1979,-0.1977,-0.199,-0.1993,-0.2005,-0.1998,-0.1998,-0.2002,-0.2,-0.2002,-0.2002,-0.2002,-0.2011,-0.2013,-0.2041,-0.2007,-0.205,-0.2051,-0.2053,-0.2103,-0.2108,-0.2113,0,0,0,0,0,-0.1976,-0.1972,-0.1976,-0.1978,-0.199,-0.2005,-0.2007,-0.2007,-0.2003,-0.2004,-0.2006,-0.2002,-0.2021,-0.2012,-0.2014,-0.2043,-0.2049,-0.2051,-0.2052,-0.21,-0.2107,-0.2113,0,0,0,0,0,0,-0.1959,-0.1971,-0.1976,-0.1976,-0.199,-0.2003,-0.2002,-0.2008,-0.2012,-0.2007,-0.201,-0.201,-0.2027,-0.2025,-0.2015,-0.206,-0.2036,-0.2038,-0.2071,-0.2078,-0.2083,-0.2087,-0.2008,0,0,0,0,0,-0.1957,-0.1956,-0.1975,-0.1975,-0.198,-0.1993,-0.1998,-0.2002,-0.201,-0.201,-0.2013,-0.2021,-0.2038,-0.2048,-0.2052,-0.208,-0.2072,-0.2099,-0.2104,-0.2109,-0.2113,-0.2161,-0.2171,-0.2059,-0.2059,-0.2059,0,0,-0.1949,-0.1957,-0.1956,-0.1971,-0.1979,-0.1997,-0.1993,-0.2,-0.2022,-0.2011,-0.2029,-0.2032,-0.2046,-0.2073,-0.2082,-0.2076,-0.2125,-0.2111,-0.2115,-0.2116,-0.2164,-0.2175,-0.2185,-0.206,-0.206,-0.206,0,0,-0.1943,-0.1943,-0.1946,-0.1961,-0.1978,-0.1991,-0.1994,-0.201,-0.2021,-0.2041,-0.2044,-0.2067,-0.2079,-0.211,-0.2125,-0.2162,-0.2144,-0.2158,-0.2199,-0.2246,-0.2256,-0.2265,-0.222,-0.2224,-0.217,-0.217,-0.217,0,-0.1936,-0.1943,-0.195,-0.1965,-0.1979,-0.199,-0.2008,-0.2028,-0.2046,-0.2079,-0.2046,-0.2111,-0.2104,-0.2184,-0.218,-0.2177,-0.2165,-0.2177,-0.2255,-0.2264,-0.2272,-0.2224,-0.2228,-0.2173,-0.2172,-0.2172,-0.2172,0,-0.194,-0.1949,-0.1951,-0.1976,-0.1996,-0.2006,-0.2041,-0.2069,-0.2079,-0.2111,-0.2172,-0.2174,-0.2222,-0.2221,-0.2201,-0.2273,-0.2228,-0.225,-0.2242,-0.2287,-0.2232,-0.2236,-0.2177,-0.2176,-0.2175,-0.2174,0,0,-0.1905,-0.1946,-0.1945,-0.1968,-0.2001,-0.2021,-0.2073,-0.2136,-0.2204,-0.2211,-0.2292,-0.2305,-0.2318,-0.2334,-0.2336,-0.236,-0.237,-0.2319,-0.232,-0.2277,-0.2406,-0.2263,-0.2252,-0.2413,-0.2416,-0.2417,-0.2326,0,-0.1902,-0.1929,-0.1958,-0.1996,-0.2012,-0.2063,-0.213,-0.2196,-0.2244,-0.2325,-0.2358,-0.2416,-0.2364,-0.239,-0.2411,-0.2385,-0.239,-0.2388,-0.2366,-0.2364,-0.2237,-0.2257,-0.218,-0.2084,-0.2329,-0.233,-0.233,0,-0.189,-0.191,-0.1942,-0.2029,-0.2047,-0.2084,-0.2204,-0.2263,-0.2389,-0.2442,-0.2515,-0.2535,-0.2566,-0.2519,-0.2508,-0.2507,-0.2452,-0.2422,-0.2419,-0.2275,-0.223,-0.2089,-0.2081,-0.2044,-0.2336,-0.2335,-0.2335,0,-0.1847,-0.1903,-0.1929,-0.1948,-0.2048,-0.2097,-0.2157,-0.229,-0.2379,-0.2506,-0.2573,-0.2637,-0.2637,-0.2629,-0.2503,-0.2527,-0.2455,-0.2499,-0.232,-0.2306,-0.2229,-0.2205,-0.219,-0.2507,-0.2507,-0.2507,-0.2508,0,-0.1822,-0.1843,-0.1912,-0.1922,-0.1998,-0.2075,-0.219,-0.2284,-0.2439,-0.2534,-0.2613,-0.2663,-0.2664,-0.2611,-0.2537,-0.2387,-0.2481,-0.2314,-0.2291,-0.2235,-0.2214,-0.2167,-0.218,-0.2504,-0.2505,-0.2505,-0.2506,0,-0.1768,-0.1806,-0.1845,-0.1938,-0.1971,-0.202,-0.2181,-0.2279,-0.2424,-0.2543,-0.2579,-0.2665,-0.2584,-0.253,-0.2463,-0.2388,-0.2235,-0.2222,-0.2091,-0.2054,-0.1888,-0.1906,-0.184,-0.1779,-0.206,-0.2057,-0.2053,0,-0.1744,-0.1752,-0.183,-0.185,-0.1884,-0.1976,-0.2056,-0.2241,-0.2348,-0.2513,-0.2557,-0.2536,-0.2488,-0.2315,-0.2195,-0.2049,-0.2047,-0.1888,-0.1946,-0.1849,-0.1857,-0.1875,-0.1832,-0.1844,-0.1839,-0.1835,-0.1832,0,-0.1692,-0.1716,-0.1743,-0.1778,-0.1835,-0.1929,-0.2044,-0.2143,-0.2342,-0.2413,-0.2446,-0.2412,-0.2277,-0.2083,-0.1894,-0.1812,-0.1837,-0.1804,-0.179,-0.1743,-0.1684,-0.1621,-0.187,-0.1798,-0.1801,-0.1804,-0.1806,-0.1807,-0.1643,-0.1647,-0.1669,-0.17,-0.1761,-0.1838,-0.1878,-0.2012,-0.2112,-0.2184,-0.2234,-0.213,-0.2004,-0.1744,-0.1635,-0.1463,-0.1565,-0.1447,-0.1486,-0.1518,-0.1444,-0.1549,-0.1405,-0.1406,-0.1407,-0.1408,-0.1409,0,-0.157,-0.1571,-0.1589,-0.1613,-0.1624,-0.17,-0.1835,-0.1847,-0.1869,-0.1928,-0.1892,-0.177,-0.1567,-0.1465,-0.1293,-0.1191,-0.1192,-0.1156,-0.1222,-0.1202,-0.1367,-0.1342,-0.1074,-0.1074,-0.1074,-0.1074,-0.1074,-0.1074,-0.1525,-0.1497,-0.1501,-0.1456,-0.147,-0.146,-0.1502,-0.1515,-0.1552,-0.1487,-0.1447,-0.146,-0.1412,-0.1332,-0.114,-0.1055,-0.1033,-0.0981,-0.0997,-0.1174,-0.1207,-0.1238,-0.1219,-0.0929,-0.0929,-0.0804,-0.0803,-0.0802]},{"header":{"parameterUnit":"m.s-1","parameterCategory":2,"la1":30.2991,"la2":30.254,"lo1":-89.0895,"lo2":-89.0444,"dy":0.0017,"dx":0.0017,"nx":28,"ny":28,"refTime":"2024-03-27T09:00:00:Z","depth":"0","parameterNumber":3,"parameterNumberName":"V-component_of_CURRENTS"},"data":[0,0,0,0,0,0,0,0,0,0,0,0,0,0,0,0,0,0,0,0,0,0,0,0,0,0,0,0,0,0,0,0,0,0,0,0,0,0,0,0,0,0,0,0,0,0,0,0,0,0,0,0,0,0,0,0,0,0,-0.0393,-0.0393,0,-0.0351,-0.0351,-0.035,-0.0315,-0.0315,-0.0314,-0.0314,-0.0238,-0.0237,-0.0235,0,0,0,0,0,0,0,0,0,0,0,0,0,-0.0423,-0.0423,-0.0393,-0.0393,-0.0392,-0.0351,-0.0351,-0.035,-0.0315,-0.0315,-0.0314,-0.0314,-0.0239,-0.0237,-0.0235,0,0,0,0,0,0,0,0,0,0,0,0,0,-0.0398,-0.0423,-0.0393,-0.0371,-0.0368,-0.0351,-0.0351,-0.035,-0.0315,-0.0315,-0.0314,-0.0314,-0.0239,-0.0237,-0.0234,-0.0227,0,0,-0.0226,-0.0225,0,0,0,0,0,0,0,0,-0.0399,-0.0397,-0.0374,-0.0372,-0.0369,-0.0339,-0.0333,-0.0307,-0.0315,-0.0334,-0.0314,-0.0314,-0.027,-0.0264,-0.0257,-0.0224,-0.022,-0.0226,-0.0225,-0.0223,-0.0223,0,0,0,0,0,0,0,-0.0401,-0.0398,-0.0376,-0.0374,-0.0371,-0.0356,-0.0352,-0.0328,-0.0304,-0.0333,-0.033,-0.0327,-0.0268,-0.0259,-0.0255,-0.0219,-0.0226,-0.0224,-0.0222,-0.0221,-0.0177,-0.0178,0,0,0,0,0,0,-0.041,-0.04,-0.0377,-0.0374,-0.0385,-0.0356,-0.0351,-0.0348,-0.0305,-0.0298,-0.0328,-0.0326,-0.0264,-0.0258,-0.0252,-0.0244,-0.0223,-0.0221,-0.022,-0.0177,-0.0177,-0.0178,0,0,0,0,0,0,-0.0411,-0.0408,-0.0379,-0.0387,-0.0382,-0.0356,-0.0353,-0.0348,-0.0339,-0.0301,-0.0294,-0.0324,-0.0264,-0.0255,-0.0235,-0.024,-0.022,-0.0217,-0.0176,-0.0177,-0.0178,-0.0226,0,0,0,0,0,0,-0.0412,-0.0409,-0.041,-0.0388,-0.0382,-0.0374,-0.0353,-0.0347,-0.0338,-0.0335,-0.0296,-0.0288,-0.0263,-0.024,-0.0233,-0.0236,-0.0215,-0.0176,-0.0177,-0.0177,-0.0224,-0.0228,-0.0231,0,0,0,0,0,-0.0413,-0.0417,-0.041,-0.0408,-0.0385,-0.0374,-0.037,-0.0349,-0.0338,-0.0339,-0.0313,-0.0289,-0.024,-0.0238,-0.023,-0.0233,-0.0176,-0.0177,-0.0177,-0.0222,-0.0227,-0.0231,0,0,0,0,0,0,-0.0429,-0.0413,-0.0406,-0.0404,-0.0393,-0.0369,-0.0367,-0.0353,-0.0333,-0.0329,-0.0293,-0.0284,-0.0271,-0.0246,-0.0245,-0.0223,-0.0204,-0.0204,-0.0241,-0.0245,-0.0249,-0.0255,-0.0213,0,0,0,0,0,-0.0435,-0.0434,-0.0417,-0.0417,-0.0413,-0.0391,-0.0384,-0.0372,-0.0351,-0.0342,-0.0316,-0.0289,-0.0268,-0.0253,-0.0232,-0.0217,-0.0168,-0.0214,-0.0218,-0.0222,-0.0222,-0.0141,-0.0137,-0.0181,-0.0181,-0.0181,0,0,-0.0441,-0.0432,-0.0432,-0.042,-0.0409,-0.0411,-0.0385,-0.0379,-0.0381,-0.0337,-0.033,-0.0303,-0.0269,-0.0256,-0.0247,-0.0234,-0.0186,-0.0223,-0.0226,-0.0224,-0.0142,-0.0137,-0.0133,-0.0181,-0.0181,-0.0181,0,0,-0.0457,-0.0446,-0.0453,-0.0448,-0.0438,-0.0426,-0.0427,-0.0407,-0.0398,-0.0388,-0.036,-0.0335,-0.0304,-0.0279,-0.0262,-0.0274,-0.0214,-0.0271,-0.0289,-0.0211,-0.0206,-0.0202,-0.0142,-0.0131,-0.0268,-0.0268,-0.0268,0,-0.0465,-0.0471,-0.0454,-0.0462,-0.0461,-0.0437,-0.0447,-0.0437,-0.0414,-0.0404,-0.0393,-0.0337,-0.0314,-0.0285,-0.0297,-0.0282,-0.0231,-0.0274,-0.0215,-0.0209,-0.0203,-0.0142,-0.013,-0.027,-0.027,-0.027,-0.0269,0,-0.0489,-0.0493,-0.0498,-0.05,-0.0499,-0.0502,-0.049,-0.0489,-0.0474,-0.045,-0.042,-0.0379,-0.0344,-0.0335,-0.0322,-0.0278,-0.0253,-0.0232,-0.0201,-0.0201,-0.0138,-0.0124,-0.0274,-0.0273,-0.0272,-0.0272,0,0,-0.051,-0.0514,-0.0517,-0.0531,-0.052,-0.0528,-0.0532,-0.0524,-0.052,-0.0485,-0.0455,-0.043,-0.0394,-0.0374,-0.0342,-0.028,-0.0208,-0.0246,-0.024,-0.0184,-0.0039,-0.0095,-0.0085,-0.0166,-0.0164,-0.0162,-0.0013,0,-0.0534,-0.0563,-0.0553,-0.0584,-0.0598,-0.0583,-0.0596,-0.0584,-0.055,-0.0513,-0.0453,-0.0413,-0.0411,-0.0384,-0.0328,-0.0222,-0.0172,-0.0251,-0.0049,-0.0043,-0.0091,-0.0072,-0.0085,0.004,0.0001,0.0003,0.0005,0,-0.0563,-0.0579,-0.061,-0.0637,-0.0643,-0.0657,-0.0662,-0.0665,-0.0606,-0.0578,-0.0514,-0.0445,-0.0359,-0.035,-0.0182,-0.0227,-0.0155,-0.0075,-0.0067,-0.0093,-0.0075,0.0036,0.0068,0.0153,0.0026,0.0025,0.0023,0,-0.0597,-0.0623,-0.0652,-0.0659,-0.068,-0.0697,-0.071,-0.0681,-0.0681,-0.0595,-0.0539,-0.0442,-0.0351,-0.0246,-0.0116,-0.0129,0.0085,0.0094,0.0106,0.0103,0.0143,0.0139,0.0283,0.0197,0.0197,0.0196,0.0196,0,-0.0629,-0.0656,-0.0675,-0.0694,-0.0745,-0.074,-0.0771,-0.0764,-0.0719,-0.0676,-0.0568,-0.0483,-0.0314,-0.0172,-0.0089,0.0049,0.0105,0.0107,0.0141,0.0122,0.0114,0.023,0.0275,0.0202,0.0201,0.02,0.0199,0,-0.0662,-0.0668,-0.0714,-0.0747,-0.0762,-0.0801,-0.0833,-0.085,-0.078,-0.0701,-0.0662,-0.0481,-0.0298,-0.0153,0.0053,0.0098,0.0276,0.0243,0.019,0.0213,0.027,0.0311,0.0502,0.0559,0.0297,0.0296,0.0296,0,-0.068,-0.0703,-0.0761,-0.0796,-0.0813,-0.0865,-0.0907,-0.0898,-0.0886,-0.0694,-0.0643,-0.0433,-0.0311,-0.0052,0.0074,0.0209,0.0291,0.0274,0.0223,0.0272,0.0347,0.0387,0.0424,0.0273,0.0273,0.0272,0.0272,0,-0.0717,-0.0737,-0.0777,-0.0849,-0.0902,-0.0968,-0.0995,-0.0997,-0.0926,-0.0824,-0.0653,-0.053,-0.0267,-0.0108,0.006,0.0143,0.0332,0.0263,0.0364,0.0369,0.0381,0.0451,0.0165,0.0268,0.0268,0.0268,0.0269,0.0269,-0.0743,-0.0788,-0.0839,-0.0909,-0.0976,-0.104,-0.1077,-0.1059,-0.1026,-0.0859,-0.0723,-0.054,-0.0269,-0.0041,0.0064,0.0281,0.03,0.0341,0.04,0.0445,0.0455,0.0122,0.0217,0.0217,0.0218,0.0218,0.0218,0,-0.077,-0.0823,-0.0894,-0.0981,-0.1058,-0.1079,-0.1116,-0.1115,-0.1051,-0.0913,-0.0781,-0.0497,-0.0267,-0.0002,0.0304,0.0419,0.0482,0.0502,0.0592,0.0634,0.0396,0.0345,0.041,0.041,0.041,0.041,0.041,0.041,-0.0787,-0.0856,-0.0899,-0.1024,-0.1084,-0.1165,-0.1182,-0.1141,-0.106,-0.0881,-0.0715,-0.0604,-0.0186,0.0337,0.0631,0.0652,0.0796,0.0773,0.0868,0.0721,0.0711,0.0702,0.0666,0.0798,0.0799,0.1092,0.1095,0.1097]}],[{"header":{"parameterUnit":"m.s-1","parameterCategory":2,"la1":30.2991,"la2":30.254,"lo1":-89.0895,"lo2":-89.0444,"dy":0.0017,"dx":0.0017,"nx":28,"ny":28,"refTime":"2024-03-27T09:00:00:Z","depth":"2","parameterNumber":2,"parameterNumberName":"U-component_of_CURRENTS"},"data":[0,0,0,0,0,0,0,0,0,0,0,0,0,0,0,0,0,0,0,0,0,0,0,0,0,0,0,0,0,0,0,0,0,0,0,0,0,0,0,0,0,0,0,0,0,0,0,0,0,0,0,0,0,0,0,0,0,0,-0.185,-0.1851,0,-0.187,-0.187,-0.1871,-0.1864,-0.1863,-0.1863,-0.1863,-0.1875,-0.1876,-0.1877,0,0,0,0,0,0,0,0,0,0,0,0,0,-0.1824,-0.1825,-0.185,-0.1851,-0.1851,-0.187,-0.187,-0.1871,-0.1864,-0.1863,-0.1863,-0.1862,-0.1875,-0.1876,-0.1877,0,0,0,0,0,0,0,0,0,0,0,0,0,-0.1838,-0.1825,-0.185,-0.1851,-0.1851,-0.187,-0.187,-0.1871,-0.1864,-0.1863,-0.1863,-0.1862,-0.1875,-0.1876,-0.1877,-0.1893,0,0,-0.188,-0.188,0,0,0,0,0,0,0,0,-0.1837,-0.1839,-0.185,-0.1851,-0.1851,-0.1865,-0.1866,-0.1878,-0.1864,-0.1858,-0.1863,-0.1862,-0.1872,-0.1874,-0.1877,-0.1893,-0.1894,-0.188,-0.188,-0.1881,-0.1881,0,0,0,0,0,0,0,-0.1836,-0.1838,-0.1857,-0.1851,-0.1851,-0.1857,-0.1858,-0.1868,-0.1866,-0.1858,-0.1858,-0.1862,-0.1872,-0.1876,-0.1877,-0.1894,-0.188,-0.1881,-0.1881,-0.1882,-0.1934,-0.1935,0,0,0,0,0,0,-0.1836,-0.1837,-0.1856,-0.1858,-0.1844,-0.1857,-0.1859,-0.186,-0.1866,-0.1867,-0.1863,-0.1862,-0.1874,-0.1876,-0.1877,-0.1916,-0.1881,-0.1882,-0.1882,-0.1933,-0.1934,-0.1935,0,0,0,0,0,0,-0.1835,-0.1837,-0.1855,-0.1849,-0.1852,-0.1858,-0.186,-0.1861,-0.1864,-0.187,-0.1871,-0.1866,-0.1874,-0.1876,-0.1889,-0.1915,-0.1882,-0.1883,-0.1932,-0.1933,-0.1934,-0.198,0,0,0,0,0,0,-0.1834,-0.1837,-0.1837,-0.1849,-0.1852,-0.1866,-0.1861,-0.1862,-0.1869,-0.1868,-0.1873,-0.1874,-0.1874,-0.1887,-0.189,-0.1916,-0.1884,-0.1931,-0.1933,-0.1934,-0.1977,-0.1982,-0.1987,0,0,0,0,0,-0.1833,-0.1833,-0.1837,-0.184,-0.1853,-0.1867,-0.1869,-0.1871,-0.1869,-0.1872,-0.1877,-0.1874,-0.1899,-0.1889,-0.1891,-0.1919,-0.193,-0.1932,-0.1934,-0.1975,-0.1981,-0.1987,0,0,0,0,0,0,-0.1819,-0.1833,-0.1837,-0.184,-0.1854,-0.1866,-0.1868,-0.1874,-0.1881,-0.1879,-0.1882,-0.1884,-0.1904,-0.1903,-0.1892,-0.1937,-0.1915,-0.1917,-0.1946,-0.1951,-0.1956,-0.1957,-0.1885,0,0,0,0,0,-0.1819,-0.1821,-0.1839,-0.1841,-0.1847,-0.186,-0.1866,-0.1871,-0.188,-0.1882,-0.1888,-0.1897,-0.1914,-0.1925,-0.1931,-0.1958,-0.1955,-0.1977,-0.1982,-0.1986,-0.1988,-0.2044,-0.2054,-0.1941,-0.1941,-0.1941,0,0,-0.1814,-0.1822,-0.1823,-0.1839,-0.1847,-0.1864,-0.1861,-0.1871,-0.1891,-0.1883,-0.1903,-0.1909,-0.1922,-0.195,-0.196,-0.1954,-0.2005,-0.1988,-0.1992,-0.1991,-0.2047,-0.2058,-0.2068,-0.1942,-0.1942,-0.1942,0,0,-0.1811,-0.1813,-0.182,-0.1834,-0.1852,-0.1863,-0.1868,-0.1884,-0.1895,-0.1916,-0.192,-0.1943,-0.1959,-0.1984,-0.1998,-0.2034,-0.2024,-0.2035,-0.2068,-0.2123,-0.2133,-0.2142,-0.2105,-0.211,-0.2044,-0.2044,-0.2044,0,-0.1807,-0.1816,-0.1824,-0.184,-0.1853,-0.1865,-0.1882,-0.19,-0.192,-0.1945,-0.1924,-0.1984,-0.198,-0.2049,-0.2048,-0.2047,-0.2045,-0.2048,-0.2131,-0.214,-0.2149,-0.2109,-0.2114,-0.2047,-0.2046,-0.2046,-0.2046,0,-0.1814,-0.1825,-0.1828,-0.1854,-0.1872,-0.1883,-0.1914,-0.1938,-0.195,-0.1975,-0.2031,-0.2039,-0.2084,-0.2084,-0.2068,-0.2139,-0.2101,-0.2127,-0.2119,-0.2163,-0.2117,-0.2122,-0.205,-0.2049,-0.2049,-0.2048,0,0,-0.1787,-0.1827,-0.1826,-0.1847,-0.1878,-0.1896,-0.194,-0.199,-0.204,-0.2059,-0.213,-0.2144,-0.2162,-0.2177,-0.2183,-0.2213,-0.2236,-0.2188,-0.219,-0.2152,-0.2294,-0.2143,-0.2133,-0.2289,-0.2291,-0.2293,-0.222,0,-0.1787,-0.1815,-0.184,-0.1874,-0.1889,-0.1931,-0.198,-0.2033,-0.2075,-0.2146,-0.2184,-0.2243,-0.2199,-0.2232,-0.2257,-0.2247,-0.226,-0.2249,-0.2255,-0.2253,-0.2118,-0.2139,-0.1994,-0.1908,-0.2224,-0.2225,-0.2226,0,-0.1779,-0.1799,-0.1829,-0.1895,-0.1909,-0.194,-0.2029,-0.2075,-0.2181,-0.2227,-0.2303,-0.2339,-0.2382,-0.2352,-0.2359,-0.2356,-0.2322,-0.2304,-0.2302,-0.2153,-0.2114,-0.1925,-0.1905,-0.2234,-0.2233,-0.2232,-0.2232,0,-0.1741,-0.1792,-0.1815,-0.1832,-0.1909,-0.1947,-0.1991,-0.2093,-0.2154,-0.2286,-0.2353,-0.2423,-0.2439,-0.2458,-0.2368,-0.2392,-0.2345,-0.239,-0.2219,-0.2205,-0.2076,-0.2046,-0.2415,-0.2415,-0.2415,-0.2415,-0.2415,0,-0.172,-0.1738,-0.1801,-0.181,-0.1865,-0.1926,-0.2006,-0.2082,-0.2202,-0.2261,-0.2387,-0.2423,-0.2468,-0.244,-0.2399,-0.2271,-0.237,-0.2211,-0.2193,-0.2077,-0.2051,-0.2343,-0.2336,-0.2412,-0.2413,-0.2414,-0.2414,0,-0.1673,-0.1709,-0.1742,-0.1817,-0.1844,-0.188,-0.1993,-0.2052,-0.2183,-0.2268,-0.2316,-0.2408,-0.2358,-0.2355,-0.2321,-0.226,-0.2201,-0.2134,-0.1932,-0.1892,-0.202,-0.2016,-0.1986,-0.198,-0.1976,-0.1972,-0.1968,0,-0.1653,-0.1661,-0.1729,-0.1744,-0.1774,-0.1839,-0.1884,-0.202,-0.207,-0.2211,-0.2227,-0.2251,-0.2187,-0.2077,-0.2011,-0.1922,-0.202,-0.1733,-0.1774,-0.1998,-0.1985,-0.1988,-0.199,-0.16,-0.1594,-0.1589,-0.1585,0,-0.1606,-0.1629,-0.1652,-0.1679,-0.1715,-0.177,-0.1828,-0.1868,-0.1994,-0.2037,-0.2019,-0.1988,-0.1917,-0.1741,-0.1647,-0.1588,-0.175,-0.1626,-0.195,-0.1722,-0.1627,-0.1616,-0.1633,-0.1541,-0.1545,-0.1549,-0.1551,-0.1553,-0.1563,-0.1566,-0.1583,-0.1604,-0.1641,-0.1655,-0.1656,-0.1698,-0.171,-0.1736,-0.1755,-0.1669,-0.1634,-0.1423,-0.1314,-0.1277,-0.1422,-0.1387,-0.1407,-0.1431,-0.1391,-0.1293,-0.113,-0.1132,-0.1134,-0.1136,-0.1137,0,-0.1496,-0.1494,-0.1504,-0.1511,-0.1496,-0.1556,-0.1581,-0.1542,-0.1463,-0.1489,-0.1437,-0.1247,-0.1119,-0.1121,-0.0996,-0.0948,-0.0989,-0.0904,-0.0984,-0.1026,-0.1064,-0.1011,-0.0647,-0.0645,-0.0644,-0.0643,0,0,-0.1455,-0.1424,-0.1421,-0.1353,-0.1355,-0.1301,-0.1286,-0.1222,-0.121,-0.109,-0.1048,-0.1132,-0.111,-0.091,-0.0832,-0.0731,-0.0882,-0.0684,-0.1077,-0.1215,-0.1253,-0.1333,-0.1296,0,0,0,0,0]},{"header":{"parameterUnit":"m.s-1","parameterCategory":2,"la1":30.2991,"la2":30.254,"lo1":-89.0895,"lo2":-89.0444,"dy":0.0017,"dx":0.0017,"nx":28,"ny":28,"refTime":"2024-03-27T09:00:00:Z","depth":"2","parameterNumber":3,"parameterNumberName":"V-component_of_CURRENTS"},"data":[0,0,0,0,0,0,0,0,0,0,0,0,0,0,0,0,0,0,0,0,0,0,0,0,0,0,0,0,0,0,0,0,0,0,0,0,0,0,0,0,0,0,0,0,0,0,0,0,0,0,0,0,0,0,0,0,0,0,-0.0245,-0.0245,0,-0.02,-0.0199,-0.0198,-0.0165,-0.0165,-0.0165,-0.0165,-0.0091,-0.0089,-0.0088,0,0,0,0,0,0,0,0,0,0,0,0,0,-0.0275,-0.0275,-0.0245,-0.0245,-0.0244,-0.02,-0.0199,-0.0198,-0.0165,-0.0165,-0.0165,-0.0164,-0.0092,-0.009,-0.0087,0,0,0,0,0,0,0,0,0,0,0,0,0,-0.0248,-0.0275,-0.0245,-0.0223,-0.0221,-0.02,-0.0199,-0.0198,-0.0165,-0.0165,-0.0165,-0.0164,-0.0092,-0.009,-0.0087,-0.0077,0,0,-0.0079,-0.0078,0,0,0,0,0,0,0,0,-0.025,-0.0247,-0.0227,-0.0224,-0.0222,-0.0189,-0.0183,-0.0156,-0.0165,-0.0185,-0.0165,-0.0164,-0.0122,-0.0117,-0.0108,-0.0073,-0.007,-0.0079,-0.0077,-0.0076,-0.0075,0,0,0,0,0,0,0,-0.0252,-0.0249,-0.0226,-0.0226,-0.0223,-0.0206,-0.0202,-0.0177,-0.0154,-0.0183,-0.0181,-0.0178,-0.012,-0.0111,-0.0106,-0.0069,-0.0079,-0.0076,-0.0075,-0.0074,-0.0031,-0.0032,0,0,0,0,0,0,-0.0261,-0.0251,-0.0227,-0.0225,-0.0237,-0.0206,-0.0201,-0.0199,-0.0155,-0.0149,-0.0178,-0.0176,-0.0115,-0.0109,-0.0103,-0.01,-0.0076,-0.0074,-0.0072,-0.0031,-0.0032,-0.0032,0,0,0,0,0,0,-0.0262,-0.026,-0.0229,-0.0237,-0.0232,-0.0206,-0.0203,-0.0198,-0.019,-0.0152,-0.0144,-0.0176,-0.0115,-0.0107,-0.0088,-0.0096,-0.0072,-0.007,-0.003,-0.0031,-0.0032,-0.0085,0,0,0,0,0,0,-0.0263,-0.026,-0.0263,-0.0238,-0.0232,-0.0224,-0.0203,-0.0197,-0.0189,-0.0186,-0.0147,-0.014,-0.0114,-0.0092,-0.0085,-0.0092,-0.0068,-0.003,-0.0031,-0.0032,-0.0083,-0.0088,-0.0092,0,0,0,0,0,-0.0264,-0.027,-0.0263,-0.0261,-0.0237,-0.0224,-0.022,-0.0199,-0.0189,-0.019,-0.0165,-0.0142,-0.0093,-0.009,-0.0082,-0.0088,-0.0029,-0.0031,-0.0032,-0.0081,-0.0087,-0.0092,0,0,0,0,0,0,-0.0283,-0.0266,-0.0259,-0.0258,-0.0246,-0.0219,-0.0217,-0.0204,-0.0184,-0.0182,-0.0145,-0.0136,-0.0125,-0.0099,-0.0098,-0.0079,-0.0058,-0.0058,-0.0098,-0.0104,-0.0108,-0.0115,-0.0066,0,0,0,0,0,-0.029,-0.029,-0.0271,-0.0271,-0.0267,-0.0244,-0.0237,-0.0224,-0.0203,-0.0194,-0.0169,-0.0142,-0.0123,-0.0108,-0.0087,-0.0074,-0.003,-0.0073,-0.0078,-0.0082,-0.0082,-0.0018,-0.0016,-0.0036,-0.0036,-0.0036,0,0,-0.0297,-0.0289,-0.0288,-0.0276,-0.0263,-0.0265,-0.0239,-0.0232,-0.0235,-0.0189,-0.0184,-0.0158,-0.0124,-0.0113,-0.0105,-0.0091,-0.0054,-0.0083,-0.0087,-0.0085,-0.0019,-0.0017,-0.0015,-0.0036,-0.0036,-0.0036,0,0,-0.0315,-0.0305,-0.0313,-0.0306,-0.0295,-0.0282,-0.0284,-0.0262,-0.0254,-0.0244,-0.0216,-0.0195,-0.0163,-0.014,-0.0124,-0.014,-0.0083,-0.0135,-0.0158,-0.0096,-0.0093,-0.009,-0.0035,-0.0027,-0.0133,-0.0133,-0.0133,0,-0.0327,-0.0332,-0.0314,-0.032,-0.032,-0.0294,-0.0305,-0.0294,-0.027,-0.0265,-0.025,-0.0202,-0.0176,-0.0156,-0.0165,-0.0149,-0.0104,-0.0141,-0.01,-0.0097,-0.0093,-0.0037,-0.0027,-0.0136,-0.0136,-0.0135,-0.0135,0,-0.0351,-0.0355,-0.0359,-0.0361,-0.0359,-0.0363,-0.0349,-0.035,-0.0335,-0.0315,-0.0294,-0.0252,-0.0221,-0.0212,-0.0193,-0.0162,-0.0135,-0.0116,-0.0086,-0.0094,-0.0035,-0.0024,-0.014,-0.0139,-0.0138,-0.0137,0,0,-0.0376,-0.0377,-0.038,-0.0393,-0.0382,-0.0389,-0.0395,-0.0391,-0.0396,-0.0361,-0.0345,-0.0316,-0.0283,-0.0263,-0.023,-0.0178,-0.0119,-0.014,-0.0136,-0.0084,0.0022,-0.0022,-0.0014,-0.0085,-0.0084,-0.0082,0.0052,0,-0.0402,-0.0429,-0.0418,-0.0448,-0.0462,-0.0448,-0.0461,-0.0453,-0.043,-0.0408,-0.0352,-0.0322,-0.0305,-0.0283,-0.0233,-0.0137,-0.0091,-0.0157,0.0022,0.0027,-0.0011,-0.0004,-0.0017,0.0096,0.0064,0.0066,0.0067,0,-0.0431,-0.0446,-0.0477,-0.0503,-0.0509,-0.0523,-0.0539,-0.0544,-0.0504,-0.0483,-0.0434,-0.0373,-0.0298,-0.0276,-0.0125,-0.0163,-0.0086,-0.0013,-0.0005,-0.0021,0.0002,0.01,0.0118,0.0086,0.0085,0.0083,0.0082,0,-0.0469,-0.0493,-0.0522,-0.0528,-0.0547,-0.0566,-0.0579,-0.0566,-0.0575,-0.0513,-0.0473,-0.0391,-0.0315,-0.0212,-0.008,-0.0087,0.0098,0.0113,0.0142,0.014,0.0175,0.0173,0.0209,0.0209,0.0208,0.0208,0.0208,0,-0.0502,-0.0528,-0.0546,-0.0563,-0.0615,-0.061,-0.0651,-0.065,-0.0626,-0.0611,-0.0507,-0.0458,-0.0289,-0.0165,-0.0069,0.0067,0.0108,0.0139,0.0172,0.0153,0.0147,0.0174,0.0168,0.0213,0.0212,0.0211,0.021,0,-0.0537,-0.0541,-0.0586,-0.0618,-0.0632,-0.0672,-0.0711,-0.0738,-0.0688,-0.0649,-0.0618,-0.0478,-0.0318,-0.0162,0.0027,0.0091,0.0216,0.0245,0.0201,0.0223,0.0218,0.0208,0.0311,0.0311,0.031,0.031,0.031,0,-0.0556,-0.0578,-0.0633,-0.0667,-0.0683,-0.0737,-0.0778,-0.0782,-0.079,-0.067,-0.0643,-0.0469,-0.0376,-0.012,0.0032,0.0199,0.0213,0.0277,0.0243,0.0208,0.023,0.022,0.021,0.0286,0.0285,0.0285,0.0284,0,-0.0594,-0.0612,-0.0651,-0.072,-0.0772,-0.0835,-0.0873,-0.0886,-0.0852,-0.0794,-0.0692,-0.0601,-0.035,-0.0173,0.0038,0.013,0.0246,0.027,0.0289,0.0229,0.0186,0.0205,0.0198,0.0281,0.0282,0.0282,0.0282,0.0282,-0.0622,-0.0665,-0.0713,-0.078,-0.0843,-0.0901,-0.0937,-0.0936,-0.0936,-0.0816,-0.0749,-0.0579,-0.0389,-0.0103,0.0052,0.0217,0.0204,0.0267,0.0269,0.027,0.0211,0.0165,0.0247,0.0247,0.0247,0.0248,0.0248,0,-0.0652,-0.0701,-0.0768,-0.0848,-0.0919,-0.094,-0.0982,-0.0976,-0.094,-0.0831,-0.0735,-0.0517,-0.0327,-0.0116,0.0121,0.0237,0.0257,0.0278,0.029,0.0291,0.0293,0.0235,0.0279,0.0279,0.028,0.028,0,0,-0.0671,-0.0736,-0.0774,-0.0887,-0.0944,-0.1012,-0.1026,-0.0976,-0.0899,-0.0784,-0.0667,-0.0538,-0.0312,-0.0127,0.0038,0.0171,0.0203,0.0188,0.0147,0.0142,0.0143,0.0266,0.0174,0,0,0,0,0]}],[{"header":{"parameterUnit":"m.s-1","parameterCategory":2,"la1":30.2991,"la2":30.254,"lo1":-89.0895,"lo2":-89.0444,"dy":0.0017,"dx":0.0017,"nx":28,"ny":28,"refTime":"2024-03-27T09:00:00:Z","depth":"4","parameterNumber":2,"parameterNumberName":"U-component_of_CURRENTS"},"data":[0,0,0,0,0,0,0,0,0,0,0,0,0,0,0,0,0,0,0,0,0,0,0,0,0,0,0,0,0,0,0,0,0,0,0,0,0,0,0,0,0,0,0,0,0,0,0,0,0,0,0,0,0,0,0,0,0,0,-0.1245,-0.1246,0,-0.129,-0.1291,-0.1291,-0.132,-0.132,-0.132,-0.132,-0.1389,-0.1391,-0.1393,0,0,0,0,0,0,0,0,0,0,0,0,0,-0.1181,-0.1182,-0.1245,-0.1246,-0.1246,-0.129,-0.1291,-0.1291,-0.132,-0.132,-0.132,-0.1321,-0.1389,-0.1391,-0.1393,0,0,0,0,0,0,0,0,0,0,0,0,0,-0.1215,-0.1183,-0.1245,-0.1267,-0.1269,-0.129,-0.1291,-0.1291,-0.1319,-0.132,-0.132,-0.1321,-0.1388,-0.1391,-0.1393,-0.1399,0,0,-0.14,-0.1401,0,0,0,0,0,0,0,0,-0.1213,-0.1217,-0.1263,-0.1265,-0.1268,-0.1301,-0.1293,-0.1329,-0.1319,-0.1299,-0.132,-0.1321,-0.1363,-0.1367,-0.1372,-0.1402,-0.1405,-0.14,-0.1402,-0.1403,-0.1403,0,0,0,0,0,0,0,-0.121,-0.1215,-0.1262,-0.1264,-0.1267,-0.1274,-0.1279,-0.13,-0.1327,-0.1301,-0.1303,-0.131,-0.1364,-0.137,-0.1374,-0.1406,-0.14,-0.1402,-0.1404,-0.1405,-0.1506,-0.1508,0,0,0,0,0,0,-0.1207,-0.1213,-0.126,-0.1263,-0.1243,-0.1275,-0.128,-0.1289,-0.1327,-0.1333,-0.131,-0.1312,-0.1366,-0.1371,-0.1377,-0.1444,-0.1403,-0.1405,-0.1406,-0.1505,-0.1507,-0.1508,0,0,0,0,0,0,-0.1206,-0.1211,-0.1258,-0.124,-0.1247,-0.1275,-0.1285,-0.129,-0.1318,-0.1333,-0.134,-0.1336,-0.1366,-0.1374,-0.1415,-0.1444,-0.1406,-0.1408,-0.1504,-0.1506,-0.1507,-0.154,0,0,0,0,0,0,-0.1204,-0.121,-0.1227,-0.124,-0.1248,-0.1285,-0.1285,-0.129,-0.1321,-0.1324,-0.1358,-0.1363,-0.1367,-0.1412,-0.1417,-0.1447,-0.141,-0.1502,-0.1504,-0.1507,-0.1537,-0.1543,-0.1548,0,0,0,0,0,-0.1201,-0.1217,-0.1227,-0.1234,-0.1266,-0.1286,-0.1291,-0.1311,-0.1322,-0.1338,-0.1362,-0.1363,-0.1431,-0.1414,-0.1421,-0.1452,-0.1501,-0.1504,-0.1507,-0.1535,-0.1542,-0.1548,0,0,0,0,0,0,-0.1197,-0.1222,-0.1233,-0.1256,-0.1278,-0.1292,-0.1312,-0.1325,-0.1356,-0.1367,-0.1379,-0.1386,-0.1433,-0.1439,-0.142,-0.1489,-0.1467,-0.1471,-0.1487,-0.1493,-0.1498,-0.1475,-0.1412,0,0,0,0,0,-0.1204,-0.1225,-0.1245,-0.1267,-0.128,-0.1301,-0.1317,-0.1331,-0.1354,-0.1369,-0.1392,-0.1419,-0.1446,-0.1467,-0.1488,-0.1527,-0.1507,-0.1552,-0.1557,-0.1561,-0.1547,-0.154,-0.1542,-0.1518,-0.1517,-0.1517,0,0,-0.121,-0.1227,-0.124,-0.1269,-0.1288,-0.1311,-0.1312,-0.1343,-0.1367,-0.1372,-0.142,-0.1439,-0.146,-0.1501,-0.1523,-0.1513,-0.1562,-0.1565,-0.1568,-0.1552,-0.1543,-0.1545,-0.1547,-0.1519,-0.1519,-0.1519,0,0,-0.1225,-0.1247,-0.127,-0.1289,-0.1323,-0.1334,-0.1348,-0.1376,-0.1397,-0.1438,-0.1449,-0.1482,-0.1528,-0.1543,-0.1557,-0.1604,-0.1587,-0.1623,-0.1634,-0.1628,-0.1629,-0.163,-0.1618,-0.1617,-0.1628,-0.1628,-0.1628,0,-0.1235,-0.126,-0.128,-0.1305,-0.1323,-0.1347,-0.1371,-0.1395,-0.1435,-0.1451,-0.146,-0.1519,-0.1543,-0.1581,-0.1599,-0.1615,-0.1603,-0.1609,-0.1633,-0.1633,-0.1633,-0.162,-0.1618,-0.163,-0.163,-0.163,-0.163,0,-0.1258,-0.1288,-0.1303,-0.1341,-0.1365,-0.1389,-0.1419,-0.145,-0.1478,-0.1494,-0.154,-0.1565,-0.1593,-0.1618,-0.1625,-0.165,-0.1638,-0.1636,-0.1611,-0.1637,-0.1622,-0.162,-0.1633,-0.1632,-0.1632,-0.1631,0,0,-0.125,-0.1309,-0.1315,-0.1339,-0.1384,-0.1402,-0.1447,-0.1482,-0.1498,-0.1546,-0.1558,-0.1622,-0.1625,-0.164,-0.1657,-0.1658,-0.1662,-0.1651,-0.165,-0.1627,-0.1641,-0.1524,-0.1511,-0.1663,-0.1662,-0.1662,-0.1632,0,-0.1263,-0.131,-0.1338,-0.1383,-0.1406,-0.1441,-0.1471,-0.1509,-0.1533,-0.1548,-0.1582,-0.1598,-0.1638,-0.1641,-0.1658,-0.1654,-0.1657,-0.1669,-0.1627,-0.1626,-0.1509,-0.1504,-0.1661,-0.1631,-0.163,-0.163,-0.163,0,-0.1268,-0.13,-0.1347,-0.1395,-0.1408,-0.1442,-0.148,-0.1508,-0.1536,-0.1551,-0.1579,-0.1584,-0.1612,-0.162,-0.1643,-0.1649,-0.1648,-0.1643,-0.1641,-0.1512,-0.1504,-0.1598,-0.1626,-0.1626,-0.1626,-0.1627,-0.1627,0,-0.1235,-0.13,-0.1338,-0.1357,-0.1417,-0.1449,-0.1479,-0.1514,-0.1512,-0.1538,-0.1515,-0.1567,-0.1555,-0.1585,-0.1596,-0.1616,-0.1586,-0.1612,-0.1508,-0.1501,-0.1602,-0.1601,-0.1607,-0.1607,-0.1607,-0.1607,-0.1607,0,-0.1218,-0.125,-0.1331,-0.1349,-0.1389,-0.1435,-0.1457,-0.149,-0.1488,-0.1451,-0.1508,-0.1465,-0.1539,-0.1531,-0.1569,-0.152,-0.1573,-0.149,-0.1475,-0.1619,-0.1621,-0.16,-0.16,-0.1606,-0.1606,-0.1606,-0.1607,0,-0.1173,-0.1226,-0.1275,-0.1351,-0.1377,-0.1405,-0.1436,-0.1419,-0.1438,-0.138,-0.1372,-0.1379,-0.137,-0.1427,-0.1446,-0.1445,-0.1436,-0.1407,-0.1542,-0.1539,-0.1367,-0.1369,-0.1286,-0.1282,-0.1278,-0.1275,-0.1272,0,-0.1152,-0.1174,-0.1269,-0.1292,-0.1333,-0.1374,-0.1373,-0.1399,-0.1348,-0.1304,-0.1239,-0.1226,-0.1234,-0.1181,-0.1268,-0.1314,-0.1317,-0.1304,-0.135,-0.1335,-0.133,-0.1339,-0.1346,-0.1266,-0.1265,-0.1264,-0.1263,0,-0.1107,-0.1153,-0.1189,-0.1235,-0.1259,-0.1262,-0.1253,-0.1192,-0.1167,-0.1198,-0.108,-0.1067,-0.1039,-0.109,-0.1117,-0.116,-0.1312,-0.1264,-0.1273,-0.1317,-0.1309,-0.131,-0.1322,-0.1249,-0.1251,-0.1252,-0.1253,0,-0.1073,-0.1086,-0.113,-0.1157,-0.1181,-0.1118,-0.1132,-0.1051,-0.1009,-0.0951,-0.0915,-0.094,-0.099,-0.1004,-0.1035,-0.1058,-0.1071,-0.1069,-0.1089,-0.1105,-0.1065,-0.1029,-0.0849,0,0,0,0,0,-0.103,-0.1021,-0.1039,-0.1044,-0.1056,-0.1062,-0.1022,-0.1013,-0.0977,-0.0864,-0.0881,-0.0859,-0.0867,-0.09,-0.0896,-0.0974,-0.1086,-0.0965,-0.1096,-0.1174,-0.119,-0.1163,0,0,0,0,0,0,-0.0996,-0.1012,-0.1005,-0.0931,-0.0913,-0.0887,-0.0856,-0.0834,-0.0769,-0.077,-0.0792,-0.083,-0.0874,-0.0881,-0.0894,-0.0906,-0.0973,-0.1009,-0.1007,-0.1165,-0.118,-0.1192,-0.117,0,0,0,0,0]},{"header":{"parameterUnit":"m.s-1","parameterCategory":2,"la1":30.2991,"la2":30.254,"lo1":-89.0895,"lo2":-89.0444,"dy":0.0017,"dx":0.0017,"nx":28,"ny":28,"refTime":"2024-03-27T09:00:00:Z","depth":"4","parameterNumber":3,"parameterNumberName":"V-component_of_CURRENTS"},"data":[0,0,0,0,0,0,0,0,0,0,0,0,0,0,0,0,0,0,0,0,0,0,0,0,0,0,0,0,0,0,0,0,0,0,0,0,0,0,0,0,0,0,0,0,0,0,0,0,0,0,0,0,0,0,0,0,0,0,-0.012,-0.012,0,-0.0085,-0.0084,-0.0084,-0.0057,-0.0057,-0.0056,-0.0056,0.0003,0.0005,0.0006,0,0,0,0,0,0,0,0,0,0,0,0,0,-0.0137,-0.0137,-0.012,-0.012,-0.012,-0.0085,-0.0084,-0.0083,-0.0057,-0.0057,-0.0056,-0.0056,0.0003,0.0005,0.0006,0,0,0,0,0,0,0,0,0,0,0,0,0,-0.0118,-0.0137,-0.0121,-0.0103,-0.0101,-0.0085,-0.0084,-0.0083,-0.0057,-0.0057,-0.0056,-0.0056,0.0002,0.0005,0.0007,0.0016,0,0,0.0013,0.0014,0,0,0,0,0,0,0,0,-0.0119,-0.0117,-0.0106,-0.0104,-0.0102,-0.0076,-0.0068,-0.0049,-0.0057,-0.0073,-0.0056,-0.0056,-0.0022,-0.0017,-0.001,0.0018,0.0021,0.0014,0.0015,0.0016,0.0016,0,0,0,0,0,0,0,-0.012,-0.0118,-0.0105,-0.0106,-0.0103,-0.0087,-0.0084,-0.0064,-0.0048,-0.0071,-0.0069,-0.0067,-0.002,-0.0012,-0.0008,0.0022,0.0013,0.0015,0.0017,0.0018,0.0047,0.0046,0,0,0,0,0,0,-0.0128,-0.012,-0.0106,-0.0104,-0.0111,-0.0087,-0.0084,-0.0084,-0.0048,-0.0043,-0.0067,-0.0066,-0.0016,-0.0011,-0.0006,-0.001,0.0016,0.0018,0.0019,0.0047,0.0047,0.0046,0,0,0,0,0,0,-0.0129,-0.0128,-0.0108,-0.0112,-0.0108,-0.0087,-0.0087,-0.0083,-0.0077,-0.0046,-0.004,-0.0066,-0.0016,-0.0009,0.0005,-0.0007,0.0019,0.0021,0.0048,0.0047,0.0046,-0.0007,0,0,0,0,0,0,-0.013,-0.0128,-0.0133,-0.0112,-0.0108,-0.0104,-0.0087,-0.0083,-0.0076,-0.0074,-0.0043,-0.0037,-0.0015,0.0002,0.0007,-0.0003,0.0022,0.0049,0.0048,0.0047,-0.0004,-0.0009,-0.0014,0,0,0,0,0,-0.013,-0.0137,-0.0133,-0.0132,-0.0115,-0.0105,-0.0101,-0.0084,-0.0077,-0.0078,-0.0057,-0.0038,-0.0001,0.0003,0.001,-0.0001,0.0049,0.0048,0.0047,-0.0002,-0.0008,-0.0014,0,0,0,0,0,0,-0.0147,-0.0135,-0.013,-0.0133,-0.0123,-0.0101,-0.01,-0.0089,-0.0074,-0.0072,-0.0041,-0.0034,-0.0028,-0.0006,-0.0003,0.0005,0.0026,0.0026,-0.0013,-0.0019,-0.0023,-0.004,0.0024,0,0,0,0,0,-0.0154,-0.0156,-0.0141,-0.0145,-0.0141,-0.0122,-0.0117,-0.0106,-0.0089,-0.0082,-0.0062,-0.0041,-0.0028,-0.0017,-0.0001,0.0007,0.0011,0.0004,-0.0001,-0.0005,-0.0014,-0.0027,-0.0035,0.0042,0.0042,0.0042,0,0,-0.0162,-0.0155,-0.0157,-0.0148,-0.0139,-0.0142,-0.0118,-0.0114,-0.0119,-0.0078,-0.0078,-0.0056,-0.003,-0.0025,-0.002,-0.0008,-0.0024,-0.0006,-0.001,-0.0017,-0.003,-0.0037,-0.0044,0.0041,0.0042,0.0042,0,0,-0.0179,-0.0174,-0.0181,-0.0176,-0.0167,-0.0158,-0.0159,-0.0142,-0.0137,-0.0131,-0.0109,-0.0097,-0.0069,-0.0058,-0.0047,-0.0067,-0.005,-0.0059,-0.0092,-0.0105,-0.0112,-0.0118,-0.0121,-0.0127,-0.0059,-0.0059,-0.0059,0,-0.0191,-0.0197,-0.0182,-0.0189,-0.0191,-0.0169,-0.0181,-0.0174,-0.0155,-0.016,-0.0139,-0.012,-0.0088,-0.0096,-0.0096,-0.0078,-0.008,-0.0074,-0.0113,-0.0118,-0.0124,-0.0126,-0.0131,-0.0061,-0.0061,-0.0061,-0.006,0,-0.0212,-0.0219,-0.0223,-0.0227,-0.0228,-0.0233,-0.0225,-0.023,-0.022,-0.0212,-0.0216,-0.018,-0.0169,-0.0156,-0.0126,-0.0148,-0.0136,-0.012,-0.0102,-0.0135,-0.0134,-0.0139,-0.0065,-0.0064,-0.0063,-0.0063,0,0,-0.0235,-0.0239,-0.0242,-0.0256,-0.025,-0.0259,-0.0272,-0.0283,-0.0308,-0.0283,-0.0313,-0.0272,-0.0253,-0.0239,-0.0207,-0.0208,-0.0231,-0.0178,-0.0178,-0.0188,-0.0259,-0.0189,-0.0187,-0.0226,-0.0227,-0.0228,-0.0244,0,-0.0258,-0.0283,-0.0277,-0.031,-0.0324,-0.0318,-0.0339,-0.0347,-0.0348,-0.0371,-0.0342,-0.035,-0.0285,-0.0285,-0.0275,-0.0251,-0.0248,-0.0228,-0.022,-0.022,-0.0159,-0.0192,-0.0232,-0.0247,-0.0248,-0.0249,-0.025,0,-0.0283,-0.0297,-0.0329,-0.0363,-0.0371,-0.0389,-0.0433,-0.0447,-0.0467,-0.0467,-0.0464,-0.0444,-0.0436,-0.0381,-0.0356,-0.0349,-0.0305,-0.0281,-0.0281,-0.0202,-0.0159,-0.0207,-0.0258,-0.0258,-0.0257,-0.0257,-0.0256,0,-0.0311,-0.034,-0.037,-0.0378,-0.0406,-0.0433,-0.0453,-0.0478,-0.0507,-0.0532,-0.0557,-0.0539,-0.0545,-0.0497,-0.0411,-0.0397,-0.0388,-0.0363,-0.0262,-0.0256,-0.0291,-0.0285,-0.0351,-0.0351,-0.0351,-0.0351,-0.0351,0,-0.0335,-0.0365,-0.0391,-0.0407,-0.0466,-0.0471,-0.0535,-0.0552,-0.059,-0.0629,-0.0606,-0.0628,-0.0576,-0.055,-0.0462,-0.0372,-0.0423,-0.0277,-0.026,-0.0312,-0.0307,-0.0295,-0.0288,-0.0352,-0.0352,-0.0352,-0.0351,0,-0.0357,-0.0368,-0.0415,-0.0457,-0.0477,-0.052,-0.0585,-0.0632,-0.0655,-0.071,-0.0722,-0.0721,-0.0669,-0.0596,-0.0529,-0.0442,-0.036,-0.0309,-0.0374,-0.0358,-0.0211,-0.0207,-0.0222,-0.022,-0.0218,-0.0217,-0.0215,0,-0.0368,-0.039,-0.0454,-0.049,-0.0511,-0.0574,-0.0619,-0.0659,-0.0696,-0.0748,-0.0772,-0.076,-0.0729,-0.0591,-0.0504,-0.0355,-0.0309,-0.0284,-0.0239,-0.0219,-0.02,-0.0199,-0.0198,-0.0212,-0.0212,-0.0211,-0.0211,0,-0.039,-0.0415,-0.0452,-0.0524,-0.0579,-0.0644,-0.0701,-0.0728,-0.0767,-0.0807,-0.0793,-0.0728,-0.0673,-0.0561,-0.0448,-0.0332,-0.0316,-0.0263,-0.0266,-0.0224,-0.0207,-0.019,-0.0191,-0.0204,-0.0205,-0.0206,-0.0206,0,-0.0409,-0.0446,-0.0495,-0.0557,-0.0628,-0.0679,-0.0711,-0.0737,-0.077,-0.0798,-0.0793,-0.0729,-0.0714,-0.0549,-0.044,-0.0325,-0.0284,-0.0244,-0.0247,-0.0253,-0.0237,-0.0217,-0.0215,0,0,0,0,0,-0.0425,-0.0464,-0.0525,-0.0592,-0.0659,-0.0694,-0.0751,-0.0772,-0.0806,-0.0784,-0.0778,-0.0702,-0.0551,-0.0508,-0.0374,-0.0397,-0.027,-0.0238,-0.0226,-0.0167,-0.0175,-0.0141,0,0,0,0,0,0,-0.0438,-0.0494,-0.0524,-0.06,-0.0645,-0.0718,-0.0746,-0.0767,-0.074,-0.0757,-0.0672,-0.066,-0.051,-0.0619,-0.037,-0.0343,-0.0313,-0.0182,-0.0178,-0.0163,-0.017,-0.0176,-0.0144,0,0,0,0,0]}]]